{"data":{"norad_id":53851,"epoch":"2026-09-20T22:58:54.588864Z","epoch_age_seconds":44590,"freshness":"FRESH","line1":"1 53851U 22114AK  26263.95757626  .00016987  00000+0  10788-2 0  9994","line2":"2 53851  53.1593 136.6346 0002728  70.5356 289.5930 15.08973042222454","mean_motion":15.08973042,"eccentricity":0.0002728,"inclination_deg":53.1593,"raan_deg":136.6346,"arg_perigee_deg":70.5356,"mean_anomaly_deg":289.593,"bstar":0.0010788,"rev_number":22245,"period_min":95.42914021124,"perigee_km":537.44967583034,"apogee_km":541.22384951525,"semimajor_km":6917.4737626728,"source":"CELESTRAK","updated_at":"2026-09-21T09:00:33.023200Z"}}